Regional Weather Roundup
Issued by NWS

Home | Current Version | Previous Version | Text Only | Print | Product List | Glossary Off
Versions: 1 2 3 4 5 6 7 8 9 10 11 12 13 14 15 16 17 18 19 20 21 22 23 24 25 26 27 28 29 30 31 32 33 34 35 36 37 38 39 40 41 42 43 44 45 46 47 48 49 50

000
ASUS43 KLMK 201410
RWRKY
KENTUCKY REGIONAL WEATHER ROUNDUP
NATIONAL WEATHER SERVICE LOUISVILLE KY
900 AM EST SAT DEC 20 2014

NOTE "FAIR" INDICATES FEW OR NO CLOUDS BELOW 12,000 FEET
WITH NO SIGNIFICANT WEATHER AND/OR OBSTRUCTIONS TO VISIBILITY.

KYZ001>023-026-027-061>063-070>075-201500-
WESTERN AND SOUTH CENTRAL KENTUCKY

CITY           SKY/WX    TMP DP  RH WIND       PRES   REMARKS
PADUCAH        CLOUDY    35  27  72 NE3       30.29R
HENDERSON      CLOUDY    30  25  80 NE6       30.30S WCI  24
OWENSBORO      CLOUDY    31  25  78 N7        30.30R WCI  24
HOPKINSVILLE   CLOUDY    33  27  79 E3        30.28R
BOWLING GREEN  CLEAR     32  25  75 CALM      30.28S
GLASGOW        CLOUDY    31  26  80 CALM      30.27R
$$

KYZ024-025-028>034-038-045-046-053-201500-
NORTH CENTRAL KENTUCKY

CITY           SKY/WX    TMP DP  RH WIND       PRES   REMARKS
LOUISVILLE/SDF FLURRIES  31  25  78 NE7       30.28F WCI  24
LOUISVILLE/LOU CLOUDY    29  25  85 NE5       30.29F FOG     WCI  24
FORT KNOX      PTCLDY    29  25  84 NE3       30.26F
$$

KYZ035>037-039>044-047>052-055>060-089>105-201500-
NORTHEAST KENTUCKY

CITY           SKY/WX    TMP DP  RH WIND       PRES   REMARKS
LEXINGTON      CLOUDY    29  24  82 NE6       30.26S WCI  23
COVINGTON      LGT SNOW  30  23  74 CALM      30.29S
FRANKFORT      CLOUDY    29  23  78 NE5       30.27S WCI  24
$$

KYZ054-064>069-076>088-106>120-201500-
SOUTHEAST KENTUCKY

CITY           SKY/WX    TMP DP  RH WIND       PRES   REMARKS
JACKSON        CLOUDY    28  22  78 CALM      30.23S
LONDON         CLOUDY    32  24  72 CALM      30.24R
SOMERSET       CLOUDY    30  25  80 CALM      30.27R
MIDDLESBORO    FLURRIES  34  31  91 CALM      30.24S
MONTICELLO     PTSUNNY   32  27  82 CALM      30.28R
$$



USA.gov is the U.S. government's official web portal to all federal, state and local government web resources and services.